| time (UTC) | temp C | wind direction | speed KPH | gust KPH | rain 1hr cm | rain 24hr cm | rain mn cm | humidity % | barometer mb |
| 20260506080832 | 12 | 346 | 11.3 | 19.3 | 0.00 | 0.00 | 0.00 | 74 | 975.5 |
| 20260506080336 | 12 | 0 | 11.3 | 20.9 | 0.00 | 0.00 | 0.00 | 74 | 975.4 |
| 20260506073314 | 12 | 21 | 9.7 | 20.9 | 0.00 | 0.00 | 0.00 | 74 | 975.3 |
| 20260506072808 | 12 | 17 | 9.7 | 20.9 | 0.00 | 0.00 | 0.00 | 74 | 975.3 |
| 20260506072305 | 12 | 355 | 11.3 | 22.5 | 0.00 | 0.00 | 0.00 | 74 | 975.4 |
| 20260506071756 | 12 | 47 | 12.9 | 22.5 | 0.00 | 0.00 | 0.00 | 74 | 975.3 |
| 20260506070238 | 12 | 15 | 9.7 | 16.1 | 0.00 | 0.00 | 0.00 | 74 | 975.0 |
| 20260506062150 | 12 | 27 | 9.7 | 17.7 | 0.00 | 0.00 | 0.00 | 75 | 975.2 |
| 20260506061644 | 12 | 9 | 9.7 | 19.3 | 0.00 | 0.00 | 0.00 | 75 | 975.2 |
| 20260506061139 | 12 | 32 | 9.7 | 19.3 | 0.00 | 0.00 | 0.00 | 75 | 975.1 |
| 20260506060631 | 12 | 329 | 8.0 | 17.7 | 0.00 | 0.00 | 0.00 | 76 | 975.2 |
| 20260506060126 | 12 | 48 | 6.4 | 17.7 | 0.00 | 0.00 | 0.00 | 76 | 975.2 |
| 20260506051026 | 13 | 36 | 9.7 | 19.3 | 0.00 | 0.00 | 0.00 | 75 | 975.2 |
| 20260506050519 | 13 | 350 | 9.7 | 19.3 | 0.00 | 0.00 | 0.00 | 75 | 975.3 |
| 20260506045002 | 13 | 30 | 11.3 | 24.1 | 0.00 | 0.00 | 0.00 | 75 | 975.3 |
| 20260506043951 | 13 | 15 | 12.9 | 25.7 | 0.00 | 0.00 | 0.00 | 75 | 975.3 |
| 20260506043445 | 13 | 22 | 9.7 | 24.1 | 0.00 | 0.00 | 0.00 | 75 | 975.3 |
| 20260506042939 | 13 | 13 | 11.3 | 20.9 | 0.00 | 0.00 | 0.00 | 75 | 975.4 |
| 20260506042433 | 13 | 355 | 12.9 | 27.4 | 0.00 | 0.00 | 0.00 | 76 | 975.4 |
| 20260506041926 | 13 | 343 | 12.9 | 27.4 | 0.00 | 0.00 | 0.00 | 76 | 975.2 |
| 20260506041420 | 13 | 14 | 11.3 | 25.7 | 0.00 | 0.00 | 0.00 | 76 | 975.3 |
| 20260506040914 | 13 | 59 | 12.9 | 24.1 | 0.00 | 0.00 | 0.00 | 76 | 975.2 |
| 20260506040409 | 13 | 55 | 14.5 | 24.1 | 0.00 | 0.00 | 0.00 | 76 | 975.2 |
| 20260506035903 | 13 | 0 | 12.9 | 22.5 | 0.00 | 0.00 | 0.00 | 76 | 975.2 |
| 20260506035357 | 13 | 62 | 12.9 | 24.1 | 0.00 | 0.00 | 0.00 | 76 | 975.0 |
| 20260506034855 | 13 | 63 | 11.3 | 24.1 | 0.00 | 0.00 | 0.00 | 77 | 975.0 |
| 20260506034355 | 13 | 45 | 12.9 | 24.1 | 0.00 | 0.00 | 0.00 | 77 | 975.1 |
| 20260506033853 | 13 | 107 | 16.1 | 24.1 | 0.00 | 0.00 | 0.00 | 77 | 975.1 |
| 20260506033353 | 13 | 0 | 14.5 | 27.4 | 0.00 | 0.00 | 0.00 | 77 | 975.1 |
| 20260506032852 | 13 | 65 | 12.9 | 27.4 | 0.00 | 0.00 | 0.00 | 78 | 974.9 |
| 20260506031854 | 14 | 0 | 14.5 | 20.9 | 0.00 | 0.00 | 0.00 | 78 | 974.9 |
| 20260506031353 | 14 | 349 | 11.3 | 20.9 | 0.00 | 0.00 | 0.00 | 79 | 974.8 |
| 20260506030854 | 14 | 67 | 8.0 | 19.3 | 0.00 | 0.00 | 0.00 | 79 | 974.9 |
| 20260506030352 | 14 | 340 | 6.4 | 17.7 | 0.00 | 0.00 | 0.00 | 79 | 974.6 |
| 20260506025853 | 14 | 355 | 6.4 | 14.5 | 0.00 | 0.00 | 0.00 | 78 | 974.5 |
| 20260506025353 | 14 | 76 | 4.8 | 14.5 | 0.00 | 0.00 | 0.00 | 78 | 974.6 |
| 20260506024852 | 14 | 90 | 4.8 | 16.1 | 0.00 | 0.00 | 0.00 | 78 | 974.5 |
| 20260506023853 | 14 | 0 | 8.0 | 19.3 | 0.00 | 0.00 | 0.00 | 78 | 974.5 |
| 20260506022848 | 15 | 0 | 8.0 | 19.3 | 0.00 | 0.00 | 0.00 | 78 | 974.3 |
| 20260506022352 | 15 | 355 | 9.7 | 19.3 | 0.00 | 0.00 | 0.00 | 78 | 974.0 |
| 20260506021846 | 15 | 47 | 11.3 | 20.9 | 0.00 | 0.00 | 0.00 | 78 | 973.6 |
| 20260506021341 | 15 | 49 | 12.9 | 20.9 | 0.00 | 0.00 | 0.00 | 78 | 973.0 |
| 20260506020328 | 15 | 355 | 14.5 | 24.1 | 0.00 | 0.00 | 0.00 | 77 | 972.5 |
| 20260506015822 | 15 | 64 | 16.1 | 24.1 | 0.00 | 0.00 | 0.00 | 77 | 972.3 |
| 20260506015316 | 15 | 93 | 17.7 | 25.7 | 0.00 | 0.00 | 0.00 | 77 | 972.3 |
| 20260506014810 | 15 | 0 | 16.1 | 27.4 | 0.00 | 0.00 | 0.00 | 77 | 972.2 |
| 20260506014304 | 15 | 0 | 16.1 | 30.6 | 0.00 | 0.00 | 0.00 | 77 | 972.1 |
| 20260506013759 | 16 | 0 | 16.1 | 30.6 | 0.00 | 0.00 | 0.00 | 76 | 972.0 |
| 20260506013252 | 16 | 0 | 16.1 | 27.4 | 0.00 | 0.00 | 0.00 | 76 | 972.0 |
| 20260506012245 | 16 | 71 | 16.1 | 30.6 | 0.00 | 0.00 | 0.00 | 75 | 971.7 |
| 20260506011744 | 16 | 67 | 14.5 | 25.7 | 0.00 | 0.00 | 0.00 | 75 | 971.6 |
| 20260506011245 | 16 | 55 | 14.5 | 25.7 | 0.00 | 0.00 | 0.00 | 75 | 971.5 |
| 20260506010745 | 17 | 51 | 14.5 | 25.7 | 0.00 | 0.00 | 0.00 | 74 | 971.5 |
| 20260506010244 | 17 | 0 | 17.7 | 29.0 | 0.00 | 0.00 | 0.00 | 74 | 971.6 |
| 20260506005244 | 17 | 71 | 17.7 | 25.7 | 0.00 | 0.00 | 0.00 | 73 | 971.1 |
| 20260506004745 | 18 | 0 | 14.5 | 25.7 | 0.00 | 0.00 | 0.00 | 73 | 971.3 |
| 20260506004245 | 18 | 0 | 11.3 | 24.1 | 0.00 | 0.00 | 0.00 | 73 | 971.4 |
| 20260506003740 | 18 | 0 | 11.3 | 20.9 | 0.00 | 0.00 | 0.00 | 73 | 971.5 |
| 20260506003241 | 18 | 0 | 11.3 | 22.5 | 0.00 | 0.00 | 0.00 | 73 | 971.3 |
| 20260506002740 | 18 | 0 | 11.3 | 22.5 | 0.00 | 0.00 | 0.00 | 72 | 971.3 |
| 20260506002240 | 18 | 0 | 11.3 | 22.5 | 0.00 | 0.00 | 0.00 | 72 | 971.1 |
| 20260506001740 | 18 | 0 | 12.9 | 24.1 | 0.00 | 0.00 | 0.00 | 72 | 971.1 |
| 20260506001240 | 18 | 348 | 12.9 | 25.7 | 0.00 | 0.00 | 0.00 | 72 | 971.3 |
| 20260506000740 | 18 | 0 | 12.9 | 25.7 | 0.00 | 0.00 | 0.00 | 72 | 971.0 |
| 20260506000240 | 19 | 0 | 11.3 | 25.7 | 0.00 | 0.00 | 0.00 | 72 | 971.3 |
| 20260505235740 | 19 | 0 | 9.7 | 22.5 | 0.00 | 0.00 | 0.00 | 72 | 971.1 |
| 20260505235238 | 19 | 0 | 12.9 | 22.5 | 0.00 | 0.00 | 0.00 | 71 | 971.0 |
| 20260505234739 | 19 | 0 | 14.5 | 25.7 | 0.00 | 0.00 | 0.00 | 71 | 970.8 |
| 20260505234238 | 19 | 0 | 14.5 | 25.7 | 0.00 | 0.00 | 0.00 | 71 | 971.0 |
| 20260505233738 | 19 | 330 | 14.5 | 25.7 | 0.00 | 0.00 | 0.00 | 71 | 971.1 |
| 20260505233239 | 19 | 0 | 14.5 | 29.0 | 0.00 | 0.00 | 0.00 | 70 | 971.2 |
| 20260505232239 | 19 | 0 | 14.5 | 25.7 | 0.00 | 0.00 | 0.00 | 70 | 971.0 |
| 20260505231739 | 20 | 336 | 14.5 | 24.1 | 0.00 | 0.00 | 0.00 | 69 | 970.8 |
| 20260505231238 | 20 | 0 | 14.5 | 24.1 | 0.00 | 0.00 | 0.00 | 70 | 970.9 |
| 20260505230742 | 20 | 0 | 16.1 | 33.8 | 0.00 | 0.00 | 0.00 | 69 | 970.7 |
| 20260505230242 | 21 | 0 | 16.1 | 33.8 | 0.00 | 0.00 | 0.00 | 68 | 970.8 |
| 20260505225743 | 21 | 315 | 14.5 | 33.8 | 0.00 | 0.00 | 0.00 | 68 | 970.8 |
| 20260505225242 | 21 | 347 | 11.3 | 25.7 | 0.00 | 0.00 | 0.00 | 68 | 970.7 |
| 20260505224737 | 21 | 307 | 11.3 | 25.7 | 0.00 | 0.00 | 0.00 | 67 | 970.7 |
| 20260505224236 | 21 | 328 | 9.7 | 25.7 | 0.00 | 0.00 | 0.00 | 68 | 970.7 |
| 20260505223736 | 21 | 329 | 12.9 | 29.0 | 0.00 | 0.00 | 0.00 | 67 | 970.7 |
| 20260505223236 | 22 | 319 | 14.5 | 30.6 | 0.00 | 0.00 | 0.00 | 67 | 970.8 |
| 20260505222736 | 22 | 327 | 12.9 | 30.6 | 0.00 | 0.00 | 0.00 | 66 | 970.7 |
| 20260505222237 | 22 | 305 | 14.5 | 29.0 | 0.00 | 0.00 | 0.00 | 68 | 970.5 |
| 20260505221737 | 22 | 344 | 14.5 | 29.0 | 0.00 | 0.00 | 0.00 | 67 | 970.4 |
| 20260505221236 | 22 | 338 | 11.3 | 25.7 | 0.00 | 0.00 | 0.00 | 66 | 970.3 |
| 20260505215736 | 23 | 355 | 14.5 | 27.4 | 0.00 | 0.00 | 0.00 | 65 | 970.2 |
| 20260505215237 | 23 | 355 | 14.5 | 27.4 | 0.00 | 0.00 | 0.00 | 66 | 970.1 |
| 20260505214736 | 23 | 316 | 14.5 | 25.7 | 0.00 | 0.00 | 0.00 | 66 | 970.0 |
| 20260505214236 | 23 | 0 | 14.5 | 25.7 | 0.00 | 0.00 | 0.00 | 65 | 970.1 |
| 20260505213736 | 23 | 311 | 14.5 | 25.7 | 0.00 | 0.00 | 0.00 | 65 | 970.1 |
| 20260505213236 | 24 | 309 | 12.9 | 24.1 | 0.00 | 0.00 | 0.00 | 63 | 970.0 |
| 20260505212729 | 25 | 344 | 12.9 | 24.1 | 0.00 | 0.00 | 0.00 | 64 | 969.9 |
| 20260505212224 | 24 | 298 | 12.9 | 24.1 | 0.00 | 0.00 | 0.00 | 64 | 969.8 |
| 20260505211212 | 24 | 341 | 11.3 | 22.5 | 0.00 | 0.00 | 0.00 | 63 | 970.0 |
| 20260505210706 | 25 | 336 | 11.3 | 24.1 | 0.00 | 0.00 | 0.00 | 63 | 970.1 |
| 20260505210159 | 25 | 296 | 11.3 | 24.1 | 0.00 | 0.00 | 0.00 | 61 | 970.2 |
| 20260505205653 | 26 | 312 | 12.9 | 29.0 | 0.00 | 0.00 | 0.00 | 60 | 970.1 |
| 20260505205147 | 26 | 309 | 14.5 | 29.0 | 0.00 | 0.00 | 0.00 | 60 | 970.2 |
| 20260505204641 | 26 | 305 | 14.5 | 27.4 | 0.00 | 0.00 | 0.00 | 60 | 970.2 |
| 20260505204135 | 26 | 282 | 14.5 | 27.4 | 0.00 | 0.00 | 0.00 | 60 | 970.3 |
| 20260505203630 | 26 | 315 | 14.5 | 27.4 | 0.00 | 0.00 | 0.00 | 61 | 970.2 |
| 20260505203124 | 26 | 308 | 14.5 | 27.4 | 0.00 | 0.00 | 0.00 | 60 | 970.3 |
| 20260505202618 | 27 | 300 | 14.5 | 22.5 | 0.00 | 0.00 | 0.00 | 60 | 970.0 |
| 20260505202112 | 27 | 333 | 16.1 | 27.4 | 0.00 | 0.00 | 0.00 | 59 | 970.0 |
| 20260505201606 | 27 | 309 | 16.1 | 27.4 | 0.00 | 0.00 | 0.00 | 59 | 970.0 |
| 20260505200554 | 27 | 289 | 17.7 | 30.6 | 0.00 | 0.00 | 0.00 | 58 | 970.0 |
| 20260505200047 | 28 | 327 | 17.7 | 30.6 | 0.00 | 0.00 | 0.00 | 56 | 969.9 |
| 20260505195541 | 28 | 271 | 16.1 | 27.4 | 0.00 | 0.00 | 0.00 | 55 | 969.8 |
| 20260505195036 | 28 | 348 | 16.1 | 27.4 | 0.00 | 0.00 | 0.00 | 55 | 969.7 |
| 20260505194530 | 28 | 279 | 14.5 | 27.4 | 0.00 | 0.00 | 0.00 | 54 | 969.7 |
| 20260505194024 | 27 | 326 | 14.5 | 27.4 | 0.00 | 0.00 | 0.00 | 53 | 969.7 |
| 20260505193518 | 27 | 278 | 16.1 | 27.4 | 0.00 | 0.00 | 0.00 | 51 | 969.7 |
| 20260505193012 | 27 | 305 | 12.9 | 27.4 | 0.00 | 0.00 | 0.00 | 48 | 969.8 |
| 20260505192505 | 27 | 294 | 12.9 | 25.7 | 0.00 | 0.00 | 0.00 | 46 | 969.9 |
| 20260505191959 | 27 | 270 | 12.9 | 24.1 | 0.00 | 0.00 | 0.00 | 46 | 969.8 |
| 20260505191454 | 27 | 296 | 14.5 | 30.6 | 0.00 | 0.00 | 0.00 | 47 | 969.6 |
| 20260505190443 | 28 | 281 | 14.5 | 27.4 | 0.00 | 0.00 | 0.00 | 45 | 969.5 |
| 20260505185936 | 28 | 292 | 16.1 | 27.4 | 0.00 | 0.00 | 0.00 | 51 | 969.5 |
| 20260505185430 | 28 | 241 | 16.1 | 30.6 | 0.00 | 0.00 | 0.00 | 59 | 969.3 |
| 20260505184928 | 28 | 242 | 14.5 | 30.6 | 0.00 | 0.00 | 0.00 | 59 | 969.2 |
| 20260505184428 | 28 | 205 | 11.3 | 29.0 | 0.00 | 0.00 | 0.00 | 60 | 969.1 |
| 20260505183926 | 28 | 241 | 11.3 | 27.4 | 0.00 | 0.00 | 0.00 | 59 | 969.2 |
| 20260505183427 | 28 | 231 | 14.5 | 27.4 | 0.00 | 0.00 | 0.00 | 60 | 969.1 |
| 20260505182926 | 28 | 251 | 14.5 | 29.0 | 0.00 | 0.00 | 0.00 | 59 | 969.1 |
| 20260505182424 | 28 | 243 | 12.9 | 29.0 | 0.00 | 0.00 | 0.00 | 59 | 969.2 |
| 20260505181924 | 28 | 213 | 14.5 | 25.7 | 0.00 | 0.00 | 0.00 | 58 | 969.3 |
| 20260505181424 | 28 | 236 | 14.5 | 25.7 | 0.00 | 0.00 | 0.00 | 58 | 969.1 |
| 20260505180420 | 28 | 223 | 11.3 | 24.1 | 0.00 | 0.00 | 0.00 | 61 | 969.1 |
| 20260505175420 | 27 | 208 | 11.3 | 24.1 | 0.00 | 0.00 | 0.00 | 62 | 969.1 |
| 20260505173921 | 28 | 238 | 11.3 | 24.1 | 0.00 | 0.00 | 0.00 | 64 | 969.0 |
| 20260505173418 | 27 | 223 | 9.7 | 17.7 | 0.00 | 0.00 | 0.00 | 65 | 969.1 |
| 20260505172918 | 27 | 198 | 11.3 | 22.5 | 0.00 | 0.00 | 0.00 | 66 | 969.1 |
| 20260505172415 | 27 | 203 | 11.3 | 27.4 | 0.00 | 0.00 | 0.00 | 66 | 969.1 |
| 20260505171916 | 27 | 228 | 12.9 | 27.4 | 0.00 | 0.00 | 0.00 | 66 | 968.9 |
| 20260505171410 | 26 | 222 | 14.5 | 30.6 | 0.00 | 0.00 | 0.00 | 67 | 968.9 |
| 20260505170905 | 26 | 202 | 14.5 | 30.6 | 0.00 | 0.00 | 0.00 | 68 | 969.1 |
| 20260505170406 | 26 | 207 | 12.9 | 27.4 | 0.00 | 0.00 | 0.00 | 67 | 968.9 |
| 20260505165905 | 26 | 217 | 11.3 | 27.4 | 0.00 | 0.00 | 0.00 | 68 | 968.7 |
| 20260505165403 | 26 | 211 | 11.3 | 27.4 | 0.00 | 0.00 | 0.00 | 68 | 968.7 |
| 20260505164404 | 25 | 234 | 16.1 | 33.8 | 0.00 | 0.00 | 0.00 | 69 | 969.0 |
| 20260505163904 | 25 | 220 | 14.5 | 33.8 | 0.00 | 0.00 | 0.00 | 69 | 969.1 |
| 20260505163404 | 25 | 224 | 12.9 | 25.7 | 0.00 | 0.00 | 0.00 | 70 | 968.3 |
| 20260505162903 | 25 | 196 | 14.5 | 25.7 | 0.00 | 0.00 | 0.00 | 70 | 968.5 |
| 20260505162404 | 25 | 236 | 14.5 | 25.7 | 0.00 | 0.00 | 0.00 | 70 | 968.5 |
| 20260505161904 | 25 | 232 | 14.5 | 24.1 | 0.00 | 0.00 | 0.00 | 70 | 968.6 |
| 20260505160859 | 25 | 0 | 17.7 | 27.4 | 0.00 | 0.00 | 0.00 | 71 | 968.4 |
| 20260505160400 | 24 | 0 | 19.3 | 25.7 | 0.00 | 0.00 | 0.00 | 71 | 968.6 |
| 20260505153359 | 24 | 256 | 17.7 | 29.0 | 0.00 | 0.00 | 0.00 | 71 | 968.2 |
| 20260505152356 | 24 | 0 | 16.1 | 30.6 | 0.00 | 0.00 | 0.00 | 71 | 968.1 |
| 20260505151856 | 24 | 221 | 16.1 | 30.6 | 0.00 | 0.00 | 0.00 | 71 | 968.1 |
| 20260505151355 | 24 | 227 | 16.1 | 30.6 | 0.00 | 0.00 | 0.00 | 72 | 968.0 |
| 20260505150855 | 24 | 208 | 19.3 | 35.4 | 0.00 | 0.00 | 0.00 | 72 | 968.1 |
| 20260505150356 | 24 | 217 | 19.3 | 35.4 | 0.00 | 0.00 | 0.00 | 72 | 968.0 |
| 20260505124826 | 20 | 234 | 16.1 | 29.0 | 0.00 | 0.00 | 0.00 | 82 | 967.7 |
| 20260505124320 | 20 | 237 | 16.1 | 29.0 | 0.00 | 0.00 | 0.00 | 82 | 967.7 |
| 20260505123814 | 20 | 202 | 16.1 | 29.0 | 0.00 | 0.00 | 0.00 | 82 | 967.7 |
| 20260505123308 | 20 | 234 | 14.5 | 29.0 | 0.00 | 0.00 | 0.00 | 83 | 967.5 |
| 20260505122802 | 20 | 239 | 12.9 | 25.7 | 0.00 | 0.00 | 0.00 | 83 | 967.4 |
| 20260505122257 | 20 | 230 | 12.9 | 29.0 | 0.00 | 0.00 | 0.00 | 83 | 967.4 |
| 20260505121750 | 20 | 211 | 14.5 | 29.0 | 0.00 | 0.00 | 0.00 | 83 | 967.4 |
| 20260505120738 | 20 | 180 | 11.3 | 27.4 | 0.00 | 0.00 | 0.00 | 83 | 967.3 |
| 20260505115727 | 20 | 238 | 9.7 | 24.1 | 0.00 | 0.00 | 0.00 | 83 | 967.2 |
| 20260505115221 | 20 | 227 | 9.7 | 24.1 | 0.00 | 0.00 | 0.00 | 83 | 967.1 |
| 20260505114714 | 20 | 223 | 9.7 | 20.9 | 0.00 | 0.00 | 0.00 | 83 | 967.1 |
| 20260505114209 | 20 | 225 | 9.7 | 20.9 | 0.00 | 0.00 | 0.00 | 83 | 967.1 |
| 20260505113703 | 20 | 213 | 9.7 | 20.9 | 0.00 | 0.00 | 0.00 | 83 | 967.0 |
| 20260505113156 | 20 | 211 | 9.7 | 20.9 | 0.00 | 0.00 | 0.00 | 83 | 967.0 |
| 20260505112651 | 20 | 240 | 9.7 | 17.7 | 0.00 | 0.00 | 0.00 | 83 | 967.0 |
| 20260505112144 | 20 | 218 | 9.7 | 17.7 | 0.00 | 0.00 | 0.00 | 83 | 967.0 |
| 20260505111638 | 20 | 229 | 9.7 | 17.7 | 0.00 | 0.00 | 0.00 | 83 | 967.2 |
| 20260505111132 | 20 | 232 | 9.7 | 17.7 | 0.00 | 0.00 | 0.00 | 83 | 967.1 |
| 20260505110121 | 20 | 219 | 9.7 | 22.5 | 0.00 | 0.00 | 0.00 | 83 | 967.0 |
| 20260505101016 | 20 | 194 | 11.3 | 22.5 | 0.00 | 0.00 | 0.00 | 82 | 967.1 |
| 20260505100511 | 20 | 213 | 11.3 | 17.7 | 0.00 | 0.00 | 0.00 | 81 | 967.2 |
| 20260505100004 | 20 | 223 | 9.7 | 17.7 | 0.00 | 0.00 | 0.00 | 81 | 967.3 |
| 20260505094501 | 20 | 192 | 11.3 | 17.7 | 0.00 | 0.00 | 0.00 | 81 | 967.0 |
| 20260505094000 | 20 | 215 | 11.3 | 16.1 | 0.00 | 0.00 | 0.00 | 81 | 967.2 |
| 20260505093501 | 20 | 207 | 11.3 | 16.1 | 0.00 | 0.00 | 0.00 | 80 | 967.3 |
| 20260505093002 | 20 | 205 | 11.3 | 16.1 | 0.00 | 0.00 | 0.00 | 80 | 967.2 |
| 20260505092501 | 20 | 217 | 11.3 | 20.9 | 0.00 | 0.00 | 0.00 | 80 | 967.2 |
| 20260505092001 | 20 | 207 | 12.9 | 20.9 | 0.00 | 0.00 | 0.00 | 80 | 967.2 |
| 20260505091501 | 20 | 188 | 12.9 | 19.3 | 0.00 | 0.00 | 0.00 | 80 | 967.2 |
| 20260505091001 | 21 | 199 | 12.9 | 19.3 | 0.00 | 0.00 | 0.00 | 80 | 967.3 |
| 20260505090458 | 21 | 188 | 11.3 | 17.7 | 0.00 | 0.00 | 0.00 | 79 | 967.3 |
| 20260505090000 | 21 | 203 | 11.3 | 16.1 | 0.00 | 0.00 | 0.00 | 79 | 967.3 |
| 20260505085459 | 21 | 183 | 11.3 | 16.1 | 0.00 | 0.00 | 0.00 | 79 | 967.3 |
| 20260505083956 | 21 | 212 | 9.7 | 16.1 | 0.00 | 0.00 | 0.00 | 78 | 967.5 |
| 20260505083501 | 21 | 229 | 9.7 | 19.3 | 0.00 | 0.00 | 0.00 | 78 | 967.6 |
| 20260505082957 | 21 | 223 | 9.7 | 19.3 | 0.00 | 0.00 | 0.00 | 77 | 967.4 |
| 20260505082457 | 21 | 227 | 11.3 | 20.9 | 0.00 | 0.00 | 0.00 | 77 | 967.4 |
| 20260505081955 | 21 | 208 | 11.3 | 20.9 | 0.00 | 0.00 | 0.00 | 77 | 967.3 |